Regional Weather Roundup
Issued by NWS

Home | Current Version | Previous Version | Text Only | Print | Product List | Glossary Off
Versions: 1 2 3 4 5 6 7 8 9 10 11 12 13 14 15 16 17 18 19 20 21 22 23 24 25 26 27 28 29 30 31 32 33 34 35 36 37 38 39 40 41 42 43 44 45 46 47 48 49 50

000
ASUS43 KLOT 230806
RWRIL

ILLINOIS REGIONAL WEATHER ROUNDUP
NATIONAL WEATHER SERVICE CHICAGO/ROMEOVILLE IL
300 AM CDT TUE SEP 23 2014

NOTE: "FAIR" INDICATES FEW OR NO CLOUDS BELOW 12,000 FEET WITH NO
SIGNIFICANT WEATHER AND/OR OBSTRUCTIONS TO VISIBILITY.

* THESE STATIONS ARE NOT UNDER NWS QUALITY CONTROL. THEY ALSO MAY NOT
  REPORT WEATHER SUCH AS PRECIPITATION OR FOG.

ILZ001-002-007-009-015-016-024-230900-
NORTHWEST ILLINOIS

CITY           SKY/WX    TMP DP  RH WIND       PRES   REMARKS
MOLINE         CLEAR     46  43  89 CALM      30.26F
STERLING*      CLEAR     43  39  87 CALM      30.28S
SAVANNA*       FOG       46  44  93 NE3       30.27S VSB 1/2
$$

ILZ003-004-008-010-011-017-018-230900-
NORTH CENTRAL ILLINOIS

CITY           SKY/WX    TMP DP  RH WIND       PRES   REMARKS
ROCKFORD       CLEAR     46  43  89 S5        30.29S
FREEPORT*      CLEAR     46  42  87 SW3       30.29S
ROCHELLE*      CLEAR     42  40  95 CALM      30.28S
DE KALB*       CLEAR     45  40  85 S5        30.28S
PERU*          CLEAR     49  46  91 CALM      30.29S
$$

ILZ005-006-012>014-019>023-230900-
NORTHEAST ILLINOIS

CITY           SKY/WX    TMP DP  RH WIND       PRES   REMARKS
CHICAGO-OHARE  CLEAR     53  43  68 CALM      30.27S
CHICAGO-MIDWAY CLEAR     53  44  71 S7        30.27F
AURORA         CLEAR     46  42  86 CALM      30.29S
LANSING*       CLEAR     47  45  91 CALM      30.28F
JOLIET*        CLEAR     45  44  95 CALM      30.29S
WAUKEGAN       CLEAR     50  46  86 SW5       30.26S
DUPAGE AIRPORT CLEAR     49  46  90 S5        30.28R
KANKAKEE*      CLEAR     45  44  96 CALM      30.30S
WHEELING       CLEAR     49  44  83 CALM      30.29S
MORRIS*        CLEAR     48  47  97 S3        30.29R
ROMEOVILLE*    CLEAR     46  44  92 S3        30.29S
NORTHERLY ISL    N/A     55  42  61 W3          N/A
$$

LMZ740>746-230900-
SOUTHERN LAKE MICHIGAN

STATION/POSITION SKY/WX   TEMP    WIND        PRES    VSBY  WAVE
                          AIR SEA DIR/SP/G                  HT/PER
                          (F)     (DEG/KT/KT) (MB)    (MI)  (FT/S)
SOUTHERN BUOY              61 62  220/ 12/ 14 1024.6F         2/ 4
WAUKEGAN HARBOR            55     250/  9/ 12   N/A
BURNHAM HARBOR             55     200/  5/  9   N/A
CALUMET HARBOR             54     200/  5/  6 1023.9S
MICHIGAN CITY 6N           56 63  170/ 10/ 14   N/A           1/ 2
ST. JOSEPH                 57 64  160/ 12/ 14   N/A           1/ 2
$$

ILZ025>027-034>036-040-047-049-050-058-095>099-230900-
WEST-CENTRAL ILLINOIS

CITY           SKY/WX    TMP DP  RH WIND       PRES   REMARKS
QUINCY         PTCLDY    54  43  66 SE6       30.26F
GALESBURG*     CLEAR    N/A N/A N/A CALM      30.28S
MACOMB*        CLEAR     42  42  97 CALM      30.29S
JACKSONVILLE*  CLEAR     47  44  88 CALM      30.28F
PITTSFIELD*    PTCLDY    48  45  90 CALM      30.28S
$$

ILZ028>032-037-038-041>044-048-051>054-059>061-230900-
CENTRAL ILLINOIS

CITY           SKY/WX    TMP DP  RH WIND       PRES   REMARKS
PONTIAC        CLEAR     46 N/A N/A CALM      30.29S
BLOOMINGTON    CLEAR     50  44  79 S6        30.30S
DECATUR        CLEAR     45  42  89 CALM      30.30R
PEORIA         CLEAR     50  46  86 CALM      30.28F
LACON*         CLEAR     43  41  93 CALM      30.28S
LINCOLN*       CLEAR     46  43  88 CALM      30.27F
SPRINGFIELD    CLEAR     46  43  89 CALM      30.28S
TAYLORVILLE    CLEAR     45  45 100 CALM      30.28S
$$

ILZ033-039-045-046-055>057-062-063-230900-
EAST-CENTRAL ILLINOIS

CITY           SKY/WX    TMP DP  RH WIND       PRES   REMARKS
CHAMPAIGN        N/A    N/A N/A N/A MISG      30.30R
DANVILLE*      CLEAR     45  44  95 CALM      30.27F
RANTOUL*       CLEAR     48  44  85 CALM      30.31R
MATTOON        CLEAR     49  45  86 CALM      30.28S
PARIS*         CLEAR     46  46 100 CALM      30.30S
$$

ILZ079-100>102-230900-
SOUTHWEST ILLINOIS

CITY           SKY/WX    TMP DP  RH WIND       PRES   REMARKS
ALTON          CLEAR     47  46  96 CALM      30.28R
BELLEVILLE     CLEAR     49  48  99 NW2       30.26S
CAHOKIA*       CLEAR     47  45  93 CALM      30.27S FOG
SPARTA*        CLEAR     45  44  97 CALM      30.27F
$$

ILZ064>066-069>071-074>076-080>082-084>086-088>090-092>094-230900-
SOUTH-CENTRAL ILLINOIS

CITY           SKY/WX    TMP DP  RH WIND       PRES   REMARKS
CARBONDALE     FOG       44  42  93 CALM      30.26F VSB 1/2
CAIRO*         CLEAR     47  44  89 CALM      30.25S
EFFINGHAM*     CLEAR     45  43  91 CALM      30.28S
MARION         FOG       46  45  93 CALM      30.27S VSB 3/4
MT. VERNON     CLEAR     45  39  81 CALM      30.28S
CENTRALIA*     CLEAR     45  43  91 CALM      30.27S
SALEM*         CLEAR     51  48  89 CALM      30.27S
METROPOLIS*    CLEAR     45  45 100 CALM      30.25F
$$

ILZ067-068-072-073-078-083-087-091-230900-
SOUTHEAST ILLINOIS

CITY           SKY/WX    TMP DP  RH WIND       PRES   REMARKS
LAWRENCEVILLE  CLEAR     47  46  97 NE6       30.28F
FLORA*         CLEAR     48  47  99 CALM      30.28S
FAIRFIELD*     CLEAR    N/A N/A N/A CALM      30.27S
HARRISBURG*    CLEAR     46  46 100 CALM      30.28S FOG
ROBINSON*      FOG       45  45 100 CALM      30.29S VSB 1/2
CARMI*         CLEAR     46  46 100 CALM      30.27S
$$

ABBREVIATIONS USED IN REMARKS
   TC - TEMPERATURE IN CELSIUS
  WCI - WIND CHILL INDEX
   HX - HEAT INDEX
  VSB - VISIBILITY
$$



USA.gov is the U.S. government's official web portal to all federal, state and local government web resources and services.